Location: Gila Cliff Dwellings National Monument
(33.2240°N, 108.2417°W)
Time: 18:31:58
(UTC-06:00)

Cosmos 2322 Rocket - Visible Passes

Search period start: 25 May 2016 00:00
Search period end: 04 June 2016 00:00
Orbit: 833 x 851 km, 71.0° (Epoch: 25 May)

Date Brightness Start Highest point End Pass type
(mag) Time Alt. Az. Time Alt. Az. Time Alt. Az.
25 May 3.4 03:33:41 10° N 03:38:57 40° ENE 03:44:11 10° SE visible
25 May 3.3 05:18:27 10° NW 05:22:39 22° W 05:26:49 10° SSW visible
26 May 3.5 03:18:44 10° N 03:23:57 38° ENE 03:29:07 10° SE visible
26 May 3.3 05:03:21 10° NW 05:07:41 23° W 05:12:00 10° SSW visible
27 May 3.5 03:03:48 10° N 03:08:57 36° ENE 03:13:25 13° SE visible
27 May 3.2 04:48:16 10° NW 04:52:44 25° WSW 04:55:05 19° SW visible
28 May 3.6 02:48:52 10° N 02:53:57 34° ENE 02:57:06 20° ESE visible
28 May 3.1 04:33:12 10° NW 04:37:46 26° WSW 04:38:48 25° WSW visible
29 May 3.6 02:33:57 10° N 02:38:57 32° ENE 02:41:08 24° ESE visible
29 May 3.1 04:18:08 10° NW 04:22:48 28° WSW 04:22:52 28° WSW visible
30 May 3.7 02:19:01 10° N 02:23:56 30° ENE 02:25:26 27° E visible
30 May 3.1 04:03:04 10° NW 04:07:11 29° W 04:07:11 29° W visible
31 May 3.7 02:04:05 10° N 02:08:56 29° ENE 02:09:55 27° E visible
31 May 3.2 03:48:00 10° NW 03:51:40 28° W 03:51:40 28° W visible
01 Jun 3.8 01:49:11 10° N 01:53:55 27° ENE 01:54:31 27° ENE visible
01 Jun 3.3 03:32:58 10° NW 03:36:17 28° WNW 03:36:17 28° WNW visible
02 Jun 3.8 01:34:16 10° N 01:38:55 26° ENE 01:39:14 26° ENE visible
02 Jun 3.4 03:17:55 10° NW 03:21:00 27° WNW 03:21:00 27° WNW visible
03 Jun 3.9 01:19:22 10° N 01:23:54 25° ENE 01:24:02 25° ENE visible
03 Jun 3.5 03:02:52 10° NW 03:05:48 27° WNW 03:05:48 27° WNW visible
